246 Klet Observatory-KLENOT. Observers M. Tichy, M. Kocer. 1.06-m KLENOT
Telescope + CCD.
340 Toyonaka. Observer Y. Ezaki. 0.3-m f/6.0 reflector + CCD.
347 Utsunomiya-Imaizumi. Observer M. Suzuki. 0.25-m f/6.3 Schmidt-Cassegrain
+ CCD.
348 Ayabe. Observer N. Otuki. 0.28-m f/5.5 Schmidt-Cassegrain + CCD.
349 Ageo. Observer K. Kadota. 0.18-m f/5.5 reflector + CCD, 0.25-m f/5.0
reflector + CCD.
442 Gualba Observatory. Observer A. Sanchez. 0.31-m f/3.3 Schimdt-Cassegrain
+ CCD.
445 Observatori d'Ontinyent. Observer M. Camarasa. 0.20-m F/7.2
Schmidt-Cassegrain + CCD.
448 Desert Moon Observatory. Observer B. Stevens. 0.3-m Schmidt-Cassegrain
+ CCD.
458 Guadarrama Observatory. Observer D. Rodriguez. 0.20-m f/4 reflector +
CCD.
557 Ondrejov. Observers P. Pravec, P. Kusnirak. 0.65-m f/3.6 reflector + CCD.
595 Farra d'Isonzo. Observers G. Lombardi, D. Di Maria, E. Pettarin,
M. Spolaor. 0.30-m f/4.0 reflector + CCD.
785 Fitz-Randolph Observatory, Princeton. Observer H. Ashley. 0.91-m
Cassegrain + CCD.
939 Observatorio Rodeno. Observer J. Castellano. 0.20-m f/10
Schmidt-Cassegrain + CCD.
E14 Ngunnawal. Observer D. Higgins. 0.25-m f/5 Schmidt-Cassegrain + CCD.
J97 Alginet. Observer T. Climent G. 0.25-m f/4 Schmidt-Cassegrain +CCD.
A22 Starkenburg Sternwarte-SOHAS. Observers M. Busch, R. Stoss.
0.19-m f/3.9 reflector + CCD.
H43 Conway. Observers P. C. Sherrod, B. M. Sherrod. 0.31-m f/3.75
Schmidt-Cassegrain + CCD.
Orbital elements:
C/2002 V1 (NEAT)
Epoch 2003 Feb. 10.0 TT = JDT 2452680.5
T 2003 Feb. 18.29585 TT MPC
q 0.0992651 (2000.0) P Q
z +0.0008920 Peri. 152.16787 -0.44696865 -0.08936974
+/-0.0000313 Node 64.08813 -0.88657461 -0.08830922
e 0.9999115 Incl. 81.71243 +0.11918260 -0.99207587
Residuals in seconds of arc
021106 608 0.6- 0.4- 021201 A28 0.2- 0.2+ 021222 340 0.5+ 0.1+
021106 608 0.3- 0.3- 021201 A28 0.5+ 0.2+ 021222 340 0.2+ 0.2-
021106 608 1.6- 1.2- 021201 048 0.1+ 0.6- 021222 340 0.4+ 0.2+
021106 620 (4.0- 0.4+) 021201 048 0.3- 0.2- 021222 170 0.0 0.2+
021106 620 1.6- 0.1- 021201 235 (5.1- 1.4+) 021222 170 0.2+ 0.3+
021106 048 0.5+ 0.6+ 021201 048 1.3- 0.3- 021222 J97 0.6+ 0.8-
021106 048 1.9+ 0.5+ 021201 048 1.8- 0.4- 021222 J97 0.5+ 0.4+
021106 048 0.5+ 0.2- 021201 246 0.1+ 0.3+ 021222 170 0.4- 0.3+
021106 048 0.1+ 0.2+ 021201 246 0.4+ 0.3+ 021222 170 0.1+ 0.0
021106 557 0.1- 0.1+ 021201 246 0.3+ 0.3+ 021223 H43 (3.6+ 0.2-)
021106 557 0.1- 0.1- 021201 246 0.1+ 0.3+ 021223 H43 (3.5+ 0.7+)
021106 557 0.3- 0.2- 021201 246 0.3+ 0.2+ 021223 H43 (3.2+ 0.1+)
021106 048 0.1+ 1.1- 021201 246 0.2+ 0.2+ 021223 H43 (3.9+ 0.3+)
021106 048 1.6+ 0.3- 021201 442 0.6- 0.9- 021223 H43 (3.7+ 0.1+)
021106 048 1.7+ 0.6+ 021201 442 1.1- 0.9- 021223 349 0.3- 0.1+
021106 048 (2.2- 0.1+) 021202 785 1.8+ 0.6+ 021223 349 0.4- 0.1-
021106 595 0.1- 0.8+ 021202 785 0.6- 0.0 021223 349 0.3- 0.2+
021107 595 0.6- 0.3- 021202 785 0.2+ 1.3+ 021223 349 0.4- 0.3-
021107 J95 0.6- 0.2+ 021202 785 0.3- 0.2+ 021223 349 0.3- 0.2-
021107 J95 0.4+ 0.1- 021202 785 0.1- 0.3+ 021224 348 0.8- 0.0
021107 246 0.1+ 0.3+ 021202 785 0.3+ 0.3+ 021224 348 1.3- 0.3-
021107 246 0.2+ 0.3+ 021202 H43 0.4+ 1.6- 021224 340 0.2+ 0.7-
021107 246 0.2+ 0.4+ 021202 H43 1.2+ 0.4+ 021224 340 0.8+ 0.4+
021107 246 0.1+ 0.3+ 021202 349 0.4+ 0.0 021224 340 0.0 0.2-
021107 246 0.1+ 0.3+ 021202 349 0.4+ 0.0 021224 213 0.1- 0.1+
021107 J95 0.1- 0.2+ 021202 349 0.2+ 0.0 021224 213 0.1- 0.0
021107 854 0.5+ 0.1- 021202 349 0.4+ 0.0 021224 213 0.5- 0.3+
021107 854 0.1- 0.3- 021202 349 0.3+ 0.1- 021224 J97 0.5- 0.4+
021107 854 0.4- 0.1+ 021202 442 0.2- 0.7- 021224 J97 (2.2- 0.7+)
021107 854 0.2- 0.5+ 021202 442 0.4- 0.6- 021224 J97 0.4+ 0.6+
021107 854 0.2- 0.1- 021203 726 0.2+ 0.4- 021224 J97 1.6- 1.0+
021107 854 0.2- 0.1+ 021203 726 0.1+ 0.7- 021225 046 0.3+ 0.1+
021107 850 1.2+ 0.3- 021203 726 0.2- 0.1- 021225 046 0.8+ 0.6+
021107 649 0.2+ 0.3+ 021203 H43 0.1- 0.1- 021225 046 0.3+ 0.3+
021107 734 0.0 0.0 021203 644 0.6- 0.2- 021225 046 0.5+ 0.2+
021107 649 0.0 0.2+ 021203 644 0.9- 0.2+ 021225 213 0.0 0.2+
021107 734 0.2+ 0.1- 021203 644 0.3- 0.2- 021225 046 0.6+ 0.3+
021107 649 0.1- 0.0 021203 619 0.7+ 0.4- 021225 213 0.2+ 0.3+
021107 850 0.6+ 0.7+ 021203 619 0.2+ 0.1+ 021225 046 0.4+ 0.1+
021107 734 0.0 0.0 021203 619 0.4+ 0.3+ 021225 213 0.2- 0.3+
021107 850 0.4+ 0.1+ 021203 213 0.3+ 0.3+ 021226 H43 (1.0- 2.1-)
021107 704 0.1- 0.2+ 021203 213 0.2+ 0.2+ 021226 H43 0.5+ 0.3-
021107 704 0.8- 0.0 021203 213 0.3+ 0.3+ 021226 H43 (1.6- 4.4-)
021107 704 0.5- 0.3- 021203 442 0.5+ 0.4- 021226 355 0.0 0.1+
021107 704 0.1+ 0.8- 021204 333 1.5+ 1.6- 021226 355 0.2- 0.1+
021107 704 (3.8+ 3.7-) 021204 333 0.3- 1.4+ 021226 355 0.2- 0.0
021107 704 (2.7- 0.4-) 021204 333 (1.2+ 2.3-) 021226 340 0.0 0.3-
021107 704 0.8- 0.2- 021204 379 0.4+ 0.4+ 021226 340 0.0 0.5-
021107 704 0.3+ 0.6- 021204 379 0.4+ 0.5- 021226 340 0.1- 0.4+
021107 704 (2.2+ 0.0 ) 021204 379 0.2+ 0.4+ 021226 340 0.4+ 0.3-
021107 704 1.6- 0.7- 021204 J97 0.4- 0.8+ 021227 H43 (1.8- 3.4-)
021107 349 0.3- 0.6+ 021204 J97 0.3- 0.2- 021227 H43 (3.0- 0.5-)
021107 349 0.4- 0.7+ 021204 J97 1.5+ 0.6- 021227 360 0.0 0.0
021107 349 0.7+ 0.0 021204 J97 1.0+ 0.4- 021227 360 0.1- 0.2-
021107 349 0.5+ 0.5+ 021204 213 0.4- 0.4- 021227 213 0.1- 0.1-
021107 213 0.4- 0.5- 021204 213 0.1+ 0.4- 021227 213 0.2- 0.0
021107 213 0.9+ 0.9- 021204 213 0.1- 0.3- 021227 213 0.2+ 0.0
021107 213 0.2- 0.1+ 021204 442 1.0- 0.1+ 021228 H43 0.2+ 0.0
021107 213 1.0- 1.5+ 021204 442 1.4- 0.2+ 021228 H43 0.1+ 0.0
021107 213 0.2- 0.5+ 021205 726 0.2+ 0.1+ 021228 H43 0.1- 0.1-
021107 170 0.3+ 0.3+ 021205 726 0.1- 0.1+ 021228 H43 0.3- 0.1+
021107 170 1.2- 0.3- 021205 726 0.1+ 0.1+ 021228 349 0.1+ 0.1-
021107 170 (4.7- 1.3-) 021205 726 (2.8- 0.3+) 021228 349 0.0 0.2-
021108 649 0.6+ 0.1+ 021205 726 (2.7+ 0.7+) 021228 349 0.1- 0.3-
021108 649 0.4+ 0.1+ 021205 726 0.0 0.2+ 021228 349 0.0 0.3-
021108 649 0.5+ 0.1+ 021205 704 1.4+ 1.1- 021228 349 0.0 0.2-
021108 H43 1.6+ 0.3- 021205 704 0.4+ 1.4- 021228 J95 0.4- 0.2+
021108 349 0.2+ 0.4- 021205 704 0.3- 1.0- 021228 J95 0.4+ 0.1-
021108 349 1.2+ 0.1+ 021205 704 0.8- 1.7- 021228 J95 0.2+ 0.0
021108 349 0.6+ 0.9- 021205 704 (2.2- 1.5-) 021228 939 0.1+ 0.2+
021108 349 0.7+ 0.3+ 021205 379 0.7- 0.3+ 021228 J95 0.8+ 0.2+
021108 349 0.4+ 0.4- 021205 379 1.2- 0.3+ 021228 939 0.2+ 0.1+
021108 J87 1.8- 0.3- 021205 213 0.3+ 0.0 021228 445 (3.4+ 0.2+)
021108 J87 1.3- 0.2+ 021205 213 0.3+ 0.0 021228 939 0.5+ 0.2+
021108 J87 (2.1- 0.0 ) 021205 213 0.4+ 0.0 021228 445 (4.2+ 0.1+)
021108 159 0.3- 0.5- 021205 213 0.1+ 0.2- 021228 A02 0.1+ 0.5-
021108 159 0.3- 0.4- 021205 939 0.4+ 0.2+ 021228 445 (2.8+ 0.4+)
021108 159 0.3- 0.4- 021205 939 0.0 0.3- 021228 A02 0.1- 0.7-
021109 118 0.2+ 0.1- 021205 939 0.4+ 0.4- 021228 A02 (2.2- 0.8-)
021109 118 0.4+ 0.2+ 021205 442 1.1- 0.4- 021228 J87 1.5- 0.0
021109 118 0.4+ 0.1+ 021205 442 1.4- 0.2- 021228 J87 0.7- 0.0
021109 340 0.6+ 0.2+ 021206 H43 0.2+ 0.3- 021228 J87 0.6- 0.2-
021109 340 0.1- 1.0+ 021206 H43 0.8+ 0.1- 021228 232 0.4- 0.6+
021109 340 0.1- 0.7- 021206 H43 0.2+ 0.3- 021228 232 0.8- 0.7+
021109 340 0.5- 1.0+ 021206 170 0.3- 0.2- 021228 232 0.7- 0.8+
021109 340 0.6+ 0.2+ 021206 170 0.1+ 0.3- 021228 A02 (2.8- 0.8-)
021109 411 0.2- 0.3- 021206 170 0.9- 0.1- 021228 A02 0.6+ 0.3-
021109 411 0.2- 0.3- 021206 J97 1.0- 0.7+ 021228 213 0.2+ 0.4+
021109 349 0.1- 0.0 021206 J97 0.9- 0.3- 021228 213 0.0 0.5+
021109 349 0.1+ 0.2- 021206 J97 0.6- 0.0 021228 213 1.3- 0.0
021109 349 0.0 0.3+ 021206 213 0.4+ 0.1- 021228 204 0.4+ 0.6+
021109 349 0.3+ 0.2+ 021206 213 0.7+ 0.2+ 021228 204 0.3- 0.4+
021109 349 0.1- 0.3+ 021206 213 0.3- 0.2+ 021228 204 0.1- 0.1+
021109 379 1.2+ 1.2- 021206 213 0.1- 0.2+ 021228 204 0.1+ 0.1+
021109 379 0.7+ 1.3- 021206 939 0.1+ 0.5- 021228 204 0.1- 0.3+
021109 204 0.0 0.1- 021206 939 0.2+ 0.5- 021228 204 0.1+ 0.3+
021109 204 0.1- 0.2- 021206 939 0.1+ 0.6- 021229 726 0.6- 0.1-
021109 204 0.1- 0.3- 021206 458 0.8- 0.6- 021229 726 0.5- 0.1+
021109 204 0.3+ 0.1+ 021206 458 (1.9- 2.5-) 021229 726 0.1- 0.0
021109 204 0.3- 0.0 021207 232 1.0- 0.9- 021229 726 0.1- 0.3+
021109 204 0.6+ 0.1- 021207 232 0.2+ 0.3+ 021229 726 0.2- 0.4+
021109 213 1.0- 0.7+ 021207 232 0.0 0.3+ 021229 726 0.4- 0.4+
021109 213 0.4- 0.8+ 021207 J91 0.2- 0.2- 021229 349 0.1+ 0.2-
021109 213 0.3+ 0.1- 021207 J91 0.3- 0.8- 021229 349 0.0 0.2-
021109 204 0.2+ 0.0 021207 750 0.3+ 0.3+ 021229 349 0.1+ 0.3-
021109 204 0.2+ 0.0 021207 750 0.2+ 0.3+ 021229 349 0.3+ 0.3-
021109 204 0.9+ 0.3- 021207 H43 0.3- 0.5- 021229 349 0.2+ 0.1-
021110 130 0.7- 0.3- 021207 H43 0.0 0.1- 021229 340 0.5+ 0.7+
021110 130 0.4- 0.3- 021207 340 0.3+ 0.5+ 021229 340 0.4- 0.4+
021110 130 0.9- 0.1- 021207 340 0.0 0.5- 021229 340 0.1+ 0.1+
021110 130 0.1- 0.2- 021207 340 0.2+ 0.4- 021229 130 0.4- 0.0
021110 H43 1.0+ 0.3- 021207 340 0.4+ 0.2- 021229 130 0.3- 0.9-
021110 H43 1.8- 0.6+ 021207 048 0.2+ 0.0 021230 785 0.3+ 0.3-
021110 352 1.0- 0.8- 021207 048 0.4+ 0.0 021230 785 0.6+ 0.3+
021110 352 0.5- 0.2- 021207 048 0.7+ 0.1- 021230 785 0.3+ 0.1-
021110 352 0.1- 0.2- 021207 048 0.3+ 0.0 021230 785 1.1- 0.0
021110 379 0.3- 0.4+ 021207 048 0.3+ 0.3+ 021230 349 0.2+ 0.1+
021110 379 0.7+ 0.4+ 021207 048 0.1- 0.3+ 021230 349 0.2+ 0.1+
021110 379 0.3- 0.5+ 021207 048 0.5+ 0.3+ 021230 349 0.3+ 0.0
021110 J87 (2.8- 1.8+) 021207 048 0.9+ 0.1+ 021230 349 0.4+ 0.0
021110 J87 1.6- 0.3+ 021207 048 0.0 0.3+ 021230 349 0.3+ 0.1+
021110 J87 (3.0- 0.4+) 021207 048 0.3+ 0.1+ 021230 411 0.1- 0.2-
021110 A46 0.5- 0.1+ 021207 048 0.4+ 0.2- 021230 411 0.1+ 0.2-
021110 A46 0.3+ 0.2- 021207 048 0.3+ 0.1+ 021230 411 0.0 0.2-
021110 A46 0.4+ 0.7- 021207 785 1.2- 0.0 021230 340 0.1- 0.1+
021110 A46 0.3- 1.1- 021208 785 0.5- 0.1- 021230 340 0.6+ 0.2-
021110 A46 0.4- 0.6+ 021208 785 0.4- 0.4- 021230 340 0.3- 0.0
021110 A46 0.3+ 0.3+ 021208 726 0.5- 0.1- 021231 616 1.8+ 0.5+
021110 A46 0.7- 0.4- 021208 726 0.3- 0.2+ 021231 616 1.1+ 0.3-
021110 A46 0.1- 0.2+ 021208 726 0.2- 0.3+ 021231 616 1.5+ 0.3-
021110 A46 0.0 0.1+ 021208 726 0.3+ 0.5- 021231 616 1.1+ 0.1+
